Location: Mount Cross
(36.6390°N, 79.4878°W)
Time: 07:04:38
(UTC+00:00)

Tiros 1 - Pass Details

Date: 03 April 2023
Orbit: 627 x 661 km, 48.4° (Epoch: 02 June)

Event Time Altitude Azimuth Distance (km) Brightness Sun altitude
Exits shadow 07:13:38 11° 51° (NE) 1,996 10.3 -40.6°
Drops below altitude 10° 07:13:50 10° 52° (NE) 2,073 10.4 -40.6°
Sets 07:16:12 0° 54° (NE) 2,989 11.4 -40.3°
